Theta_e
313 312 313 313 312 313 313 311 311 311 310 311 311 307 303 301 299 297 297 296 296 296 296 297 298 299 300 300 300 299 299 299 298 298 298 298 297 297 297 296 296 295
311 311 313 314 313 312 312 311 310 311 311 311 307 303 301 299 297 296 296 296 296 296 296 297 298 300 300 300 300 299 299 299 298 298 298 297 297 297 296 296 295 294
310 312 314 314 313 312 311 310 310 311 312 309 304 301 299 298 297 296 296 295 296 296 296 298 299 300 300 300 300 299 298 298 298 298 297 297 297 296 296 295 294 293
310 312 313 313 312 311 310 310 311 312 312 306 302 300 298 297 296 296 296 295 295 296 297 298 299 300 300 299 299 299 298 298 297 297 297 296 296 296 295 294 292 292
310 311 312 312 310 309 309 310 311 313 311 304 300 298 297 296 296 296 295 295 295 296 297 298 299 300 300 299 299 298 298 298 297 297 296 296 296 295 294 292 292 291
311 311 311 310 308 309 310 311 311 312 309 303 299 298 297 296 296 296 296 296 296 296 297 299 299 299 299 299 298 298 297 297 296 296 296 295 295 294 293 292 291 291
311 311 309 307 307 309 310 310 310 310 307 301 299 297 296 296 296 295 295 296 296 296 297 298 299 299 299 298 297 297 296 296 295 295 295 295 294 293 292 291 291 290
311 311 310 308 309 310 311 310 309 308 305 300 298 297 296 296 295 295 295 295 296 296 297 298 298 299 298 297 297 296 296 295 295 295 295 294 293 292 292 291 291 290
311 311 311 311 311 311 311 309 306 305 303 299 297 296 296 295 295 295 295 295 295 296 296 297 297 297 297 296 296 296 295 295 294 294 294 293 292 292 291 291 290 290
310 311 311 311 311 311 310 307 304 303 301 298 296 296 295 295 294 294 294 295 295 295 296 296 296 296 295 295 295 294 294 294 293 293 293 292 292 291 291 290 290 290
310 311 311 311 311 311 310 306 302 301 300 297 296 295 295 294 294 293 294 294 294 295 295 295 295 295 294 294 294 293 293 292 292 292 292 291 291 291 290 290 290 289
309 311 311 311 311 311 309 305 302 300 299 297 295 295 294 294 293 293 293 294 294 294 294 294 294 294 293 293 293 292 292 292 292 292 291 291 291 291 290 290 289 289
308 310 310 310 311 310 307 304 302 300 298 297 295 294 294 293 293 293 293 293 293 293 293 293 293 293 293 292 292 292 291 292 291 291 291 291 291 290 290 289 289 289
307 309 309 310 311 310 307 303 301 300 298 296 295 294 293 293 293 293 293 293 293 293 292 292 292 292 292 292 291 291 291 291 291 291 291 291 290 290 290 289 289 289
307 309 309 310 310 310 307 303 301 300 298 296 294 293 293 293 292 292 292 293 292 292 292 292 292 291 291 291 291 291 291 291 291 291 290 290 290 290 289 289 289 289
308 308 309 309 310 310 307 303 301 299 298 296 294 293 293 292 292 292 292 292 292 292 292 292 291 291 291 291 290 290 290 290 290 290 290 290 290 289 289 289 289 289
308 308 308 308 309 309 308 305 301 299 298 296 294 293 292 292 292 292 292 292 291 291 291 292 291 291 291 290 290 290 290 290 290 290 290 289 289 289 289 289 289 289
307 308 308 308 308 308 308 306 303 301 299 296 294 293 292 292 292 291 291 291 291 290 291 291 291 291 290 290 289 290 290 290 290 290 289 289 289 289 288 288 288 288
307 307 308 308 308 308 308 307 305 302 300 298 296 294 292 292 292 291 291 291 290 291 291 291 291 290 289 289 289 290 290 290 290 290 289 289 289 288 288 288 288 288
305 307 307 308 308 308 308 307 305 303 301 299 297 294 293 292 292 291 291 290 291 291 291 291 290 289 289 289 290 290 290 290 290 289 289 289 289 288 288 288 288 288
304 305 306 307 308 308 308 307 305 303 302 300 298 296 293 292 292 291 290 291 292 292 291 290 289 289 290 290 290 289 289 289 289 289 289 289 288 288 288 288 288 288
302 304 305 306 307 307 307 305 303 302 301 300 298 296 293 292 291 291 291 292 293 292 290 289 289 291 292 291 289 289 289 289 289 289 289 288 288 288 288 288 288 288
302 302 303 305 305 306 305 303 301 300 300 299 298 295 293 292 291 291 292 294 293 291 289 290 291 293 292 290 289 289 288 288 288 288 288 288 288 288 288 287 287 287
301 302 303 304 304 304 303 301 299 299 298 297 296 295 293 292 291 292 294 294 292 290 290 291 293 293 292 290 289 289 288 287 288 288 288 288 288 287 288 287 287 287
301 301 302 302 302 302 300 299 299 298 297 296 294 293 292 292 293 294 294 293 291 290 291 293 294 293 291 290 289 288 287 286 287 287 287 287 287 287 287 287 287 287
300 300 300 300 300 299 298 297 296 296 295 295 295 295 295 296 296 296 295 294 293 293 293 294 293 291 290 289 288 287 286 286 286 286 286 287 287 287 287 287 287 287
Wind_Speed
34 31 30 28 27 29 30 29 29 27 28 32 32 32 35 35 33 32 31 30 29 27 26 24 23 21 19 17 16 15 14 12 10 9 7 6 4 3 1 2 3 5
34 32 31 30 29 30 31 31 29 28 30 32 32 35 36 34 34 33 32 31 30 28 27 25 23 21 19 17 16 15 14 12 10 9 8 6 6 5 4 4 5 6
32 32 33 32 32 32 32 31 28 27 30 33 34 37 37 35 35 34 32 31 30 29 28 25 24 21 19 17 16 15 14 12 11 10 9 8 8 7 6 7 7 6
32 33 34 33 34 33 31 29 28 29 32 35 38 39 37 36 36 34 33 32 31 30 28 27 24 22 20 19 17 16 15 14 12 11 10 10 9 8 8 9 8 7
33 33 34 35 36 32 29 29 30 31 34 37 40 40 38 37 37 35 34 33 32 31 29 28 25 23 21 20 19 17 16 15 13 12 12 11 10 10 10 10 9 8
33 34 35 37 36 31 29 30 31 33 36 40 41 40 39 38 37 36 35 34 33 32 30 29 26 24 23 21 20 19 17 15 14 13 12 12 11 11 11 11 10 9
33 34 34 33 32 31 31 31 32 34 38 41 42 40 39 38 37 37 36 35 34 32 31 29 27 25 24 22 21 20 18 17 16 14 13 13 13 12 12 12 11 11
34 34 33 30 30 31 32 33 34 36 39 42 42 40 39 39 38 37 36 35 34 33 31 30 27 26 24 23 22 20 19 18 17 15 14 14 13 12 13 13 13 12
35 35 34 32 31 32 33 34 35 37 41 43 42 41 40 39 38 38 37 35 34 33 32 30 28 26 25 23 22 20 19 18 17 15 15 14 13 13 14 14 14 12
36 36 36 34 33 33 34 35 36 39 43 44 43 42 41 40 39 38 37 36 35 34 32 30 29 27 25 23 22 20 19 18 17 16 15 15 14 14 15 15 15 14
37 37 37 35 33 33 34 36 38 40 44 44 43 43 41 40 39 39 38 36 35 34 32 30 28 27 25 24 22 21 20 19 18 17 16 16 15 16 16 16 16 15
39 38 37 35 33 32 34 37 39 41 44 45 44 43 42 40 40 39 38 36 35 33 31 30 28 27 26 24 23 22 21 20 19 18 17 17 17 17 17 17 17 16
39 39 37 35 33 32 35 38 40 42 44 45 44 43 42 40 40 39 37 36 35 33 31 30 28 27 26 25 24 23 22 21 20 19 19 19 19 19 19 19 18 18
39 39 37 35 32 32 35 39 41 43 45 45 44 43 42 40 39 38 37 37 35 33 32 30 29 28 27 26 25 24 23 22 21 20 20 21 21 20 20 20 20 19
39 38 37 35 33 33 35 39 42 43 45 45 44 42 41 40 39 39 38 38 36 34 33 31 30 29 28 27 26 25 24 23 22 22 23 23 23 22 21 21 21 21
39 38 37 37 36 35 36 38 40 42 44 45 43 42 41 41 41 41 39 38 37 35 34 33 31 30 29 28 27 26 25 24 23 24 24 25 25 24 23 23 23 23
40 39 38 38 38 36 36 37 38 41 43 44 43 42 42 42 42 41 40 39 38 36 34 33 31 31 30 29 27 26 26 25 25 26 26 27 27 26 26 25 24 24
41 40 40 40 39 37 36 36 37 39 42 43 43 43 43 43 42 42 41 40 38 36 34 33 32 32 31 29 28 27 27 27 28 28 29 30 30 29 28 27 27 26
42 42 41 40 39 38 36 36 36 38 40 42 44 44 44 43 42 42 41 39 37 35 35 35 34 33 31 29 29 28 29 30 30 31 31 32 32 32 31 30 29 28
42 43 42 41 39 38 36 36 36 37 39 41 44 45 44 44 43 42 40 38 36 36 36 36 35 32 30 31 31 30 31 32 32 33 33 34 35 35 33 32 32 31
42 42 42 40 39 38 37 36 35 36 37 40 43 45 45 43 42 40 37 36 36 37 38 36 34 32 33 33 32 32 32 34 35 35 36 37 38 37 36 35 35 34
40 41 40 39 38 38 36 35 34 34 35 38 41 44 43 41 39 38 37 36 37 38 37 35 34 35 35 34 33 33 34 36 38 38 38 39 40 39 38 38 37 37
37 37 37 36 36 35 34 33 32 32 32 35 38 40 41 40 38 37 36 36 36 36 36 36 37 37 35 34 35 36 37 38 40 41 41 41 41 40 40 40 40 39
32 33 32 32 32 31 30 29 28 28 28 30 34 37 38 37 35 34 34 35 35 35 36 38 39 37 35 36 37 38 39 40 41 42 42 42 41 41 42 43 42 42
26 26 27 27 26 26 25 25 24 24 24 26 29 31 33 33 33 34 34 34 34 35 38 39 38 36 36 38 39 41 41 40 40 42 43 43 43 43 44 44 45 44
19 20 21 21 20 20 20 20 20 20 20 22 24 26 29 30 32 33 33 33 34 36 38 37 35 35 37 40 41 41 40 39 39 42 43 43 44 44 45 46 46 46
Wind_Direction
230 229 228 229 225 223 227 231 235 237 226 212 206 200 192 188 186 184 184 184 183 184 184 183 181 181 180 177 173 171 169 166 164 162 158 155 162 177 220 274 293 298
228 225 224 226 225 226 233 239 238 232 220 209 202 197 192 189 188 187 186 185 185 186 186 185 184 184 183 181 178 177 174 172 171 173 176 181 194 212 233 252 264 273
224 221 221 223 226 232 238 239 232 223 214 207 200 196 194 192 191 189 188 188 187 187 188 188 187 186 185 184 183 181 180 179 181 185 192 200 210 225 239 248 253 262
221 220 222 226 232 237 237 230 220 214 210 204 199 197 196 194 193 192 191 190 190 190 190 190 190 189 189 189 188 187 185 187 192 197 203 211 221 233 242 245 249 257
223 224 226 231 235 234 228 221 215 211 207 203 200 199 198 197 196 195 193 192 193 194 194 193 193 194 194 194 194 193 193 194 199 204 211 219 228 236 242 244 248 256
226 227 230 235 234 228 223 220 215 211 206 203 202 201 200 200 199 198 197 196 196 196 197 197 197 197 198 198 197 197 199 201 206 211 217 226 233 238 242 244 249 257
228 230 234 236 231 224 223 220 215 211 207 204 204 204 203 203 202 201 201 200 200 200 200 201 201 201 201 201 200 201 202 206 211 216 223 231 236 240 244 247 252 257
228 232 235 236 231 226 224 220 214 210 207 206 207 207 206 206 205 204 204 204 204 203 203 204 205 205 205 204 204 205 207 211 216 222 229 235 238 243 248 250 253 255
227 230 233 235 234 231 226 220 213 208 207 208 209 209 208 208 208 207 207 207 207 207 207 207 207 208 208 208 209 211 214 217 222 227 234 239 242 248 251 253 254 255
227 229 232 233 234 233 228 219 212 208 208 209 211 211 211 210 210 210 210 210 210 210 210 210 210 210 211 212 214 217 219 223 227 232 237 241 245 250 254 255 255 256
227 229 231 232 233 233 227 218 211 209 209 211 213 213 213 213 212 212 213 214 214 214 214 214 214 214 215 217 219 220 223 227 232 237 240 243 248 253 255 256 257 258
226 228 230 231 232 231 226 218 212 210 211 213 215 215 215 215 215 215 216 217 218 218 218 218 218 219 220 223 224 226 227 230 235 239 242 246 251 254 256 257 258 258
226 227 229 230 230 229 225 218 213 212 213 216 217 217 218 218 218 219 219 220 221 222 222 222 222 223 225 227 229 230 232 236 240 242 245 250 253 255 257 258 258 260
227 227 229 230 230 228 224 219 215 213 215 217 218 219 220 220 221 222 223 224 224 224 225 226 226 227 229 231 232 233 236 240 243 247 251 254 255 256 258 258 259 262
228 228 229 230 230 228 225 221 217 216 217 219 220 220 221 222 223 224 226 227 227 227 227 228 229 230 233 235 236 237 240 243 247 251 254 255 256 258 258 258 261 263
230 229 229 229 230 229 226 223 220 218 219 221 222 222 223 223 224 226 227 228 230 230 230 231 232 234 236 237 239 241 244 248 252 255 257 257 258 259 258 258 261 264
232 230 230 230 231 230 228 226 223 221 222 223 224 224 224 225 226 227 228 230 231 232 234 236 238 239 239 240 241 243 247 252 256 258 258 260 260 259 258 258 260 263
232 231 231 231 232 232 231 229 226 225 224 224 225 226 226 227 228 229 230 231 232 234 236 239 242 242 243 243 244 246 252 257 259 259 259 260 261 260 258 257 259 262
232 231 232 232 233 234 234 232 230 227 226 225 226 227 228 229 230 231 232 232 234 237 239 241 243 244 245 247 249 253 257 259 260 260 261 262 262 261 258 257 259 261
233 232 232 232 233 234 235 235 233 230 228 227 227 228 229 230 231 232 233 234 237 240 243 244 245 246 248 252 254 256 258 260 261 261 262 263 263 261 259 259 261 262
233 232 232 232 233 234 235 235 233 231 230 228 227 228 230 232 233 234 235 238 242 244 246 247 248 250 253 255 257 258 259 260 261 262 262 263 262 261 260 262 263 264
233 232 231 232 233 234 235 235 234 233 232 231 229 228 230 232 235 236 238 243 247 248 249 250 252 254 258 258 258 259 259 260 261 263 263 262 261 262 263 264 265 266
233 232 232 232 234 235 236 237 236 235 234 233 231 229 230 233 234 237 242 247 250 250 250 253 257 260 262 261 260 260 260 260 261 263 263 262 263 264 265 266 267 269
234 233 233 234 235 237 238 238 238 238 238 236 233 231 232 234 236 240 247 250 250 250 251 256 261 264 263 262 261 260 259 259 261 262 263 264 265 266 267 268 269 270
235 236 236 236 238 239 240 241 242 242 242 239 237 236 237 238 240 244 248 249 248 250 253 258 263 265 264 262 260 259 259 259 261 263 264 265 266 268 269 269 270 271
235 236 237 237 239 240 240 241 241 240 240 238 238 239 241 242 245 247 248 248 249 252 256 261 264 265 263 261 259 259 260 262 263 264 265 267 268 269 270 271 272 272